Home   Weather   Krishnagiri   Past weeks

Flag for India Past Weather in Krishnagiri, Tamil Nadu, India — Yesterday and Last 2 Weeks

Now
79 °F

Broken clouds.


Feels Like: 81 °F
Forecast: 73 / 86 °F
Wind: 7 mph from West

Location: Bangalore / Hindustan

Current Time: Sep 28, 2016 at 12:29:15 PM

Latest Report: Sep 28, 2016 at 12:00 PM


Visibility: 5 mi

Pressure: 29.89 "Hg

Humidity: 70%

Dew Point: 68 °F

Location of KrishnagiriLocation

Past Weather in Krishnagiri — Graph

°F

Krishnagiri Temperature Yesterday

Maximum temperature yesterday: 84 °F (at 3:30 PM)
Minimum temperature yesterday: 72 °F (at 5:30 AM)
Average temperature yesterday: 77 °F

High & Low Weather Summary for the Past Weeks

 TemperatureHumidityPressure
High84 °F (Sep 14, 3:00 PM)100% (Sep 22, 6:30 AM)30.01 "Hg (Sep 22, 6:30 AM)
Low66 °F (Sep 18, 5:30 AM)45% (Sep 18, 4:00 PM)29.74 "Hg (Sep 24, 2:30 PM)
Average76 °F72%29.88 "Hg
* Reported Sep 13 10:30 AM — Sep 28 11:00 AM, Krishnagiri, Weather by CustomWeather, © 2016

Note: Actual official high and low records may vary slightly from our data, if they occured in-between our weather recording intervals... More about our weather records

Advertising

Krishnagiri Weather History for the Previous 24 Hours

Scroll right to see more
 ConditionsComfort  
Time TempWeatherWind HumidityBarometerVisibility
11:00 AM
Wed, Sep 28
77 °FBroken clouds.7 mph79%29.95 "Hg5 mi
10:30 AM77 °FBroken clouds.7 mph79%29.95 "Hg5 mi
10:00 AM75 °FBroken clouds.7 mph83%29.95 "Hg5 mi
9:30 AM75 °FBroken clouds.7 mph83%29.95 "Hg5 mi
9:00 AM75 °FBroken clouds.7 mph83%29.95 "Hg4 mi
8:30 AM73 °FBroken clouds.7 mph89%29.95 "Hg4 mi
8:00 AM73 °FBroken clouds.7 mph83%29.92 "Hg4 mi
7:30 AM72 °FBroken clouds.9 mph88%29.92 "HgN/A
7:00 AM72 °FBroken clouds.9 mph88%29.92 "HgN/A
6:30 AM72 °FPartly cloudy.9 mph94%29.89 "HgN/A
6:00 AM72 °FPartly cloudy.7 mph94%29.89 "HgN/A
5:30 AM72 °FPartly cloudy.7 mph94%29.89 "HgN/A
11:30 PM
Tue, Sep 27
72 °FPassing clouds.3 mph100%29.92 "HgN/A
10:30 PM72 °FPassing clouds.No wind94%29.95 "HgN/A
9:30 PM72 °FPassing clouds.No wind94%29.95 "HgN/A
8:30 PM72 °FThunderstorms. Partly cloudy.3 mph100%29.92 "Hg2 mi
7:30 PM77 °FPassing clouds.No wind79%29.89 "HgN/A
6:30 PM77 °FScattered clouds.2 mph79%29.86 "HgN/A
5:30 PM79 °FScattered clouds.6 mph74%29.83 "HgN/A
5:00 PM81 °FScattered clouds.6 mph66%29.83 "HgN/A
4:30 PM82 °FScattered clouds.6 mph58%29.83 "HgN/A
4:00 PM84 °FScattered clouds.7 mph55%29.83 "HgN/A
3:30 PM84 °FScattered clouds.8 mph55%29.83 "HgN/A
3:00 PM82 °FScattered clouds.6 mph58%29.83 "HgN/A
2:30 PM82 °FScattered clouds.6 mph58%29.86 "HgN/A
2:00 PM82 °FScattered clouds.7 mph62%29.86 "HgN/A
1:30 PM82 °FScattered clouds.12 mph62%29.86 "HgN/A
1:00 PM81 °FScattered clouds.9 mph66%29.89 "HgN/A
12:30 PM81 °FScattered clouds.9 mph66%29.92 "HgN/A
12:00 PM81 °FScattered clouds.9 mph66%29.92 "HgN/A
Weather by CustomWeather, © 2016

See weather overviewHow to use our weather pages